Tracking 23610 objects as of 19-Sep-2021
HD Live streaming from Space Station
objects crossing your sky now

DMSP 5D-2 F13 DEB

Track DMSP 5D-2 F13 DEB now!
10-day predictions


NORAD ID: 40518
Int'l Code: 1995-015DE
Perigee: 663.4 km
Apogee: 809.7 km
Inclination: 98.7 °
Period: 99.4 minutes
Semi major axis: 7107 km
RCS: Unknown
Launch date: March 24, 1995
Source: United States (US)
Launch site: AIR FORCE WESTERN TEST RANGE (AFWTR)

Note: This is SATELLITE DEBRIS
aabbcc
Your satellite tracking list
Your tracking list is empty




NASA's NSSDC Master Catalog

Two Line Element Set (TLE):
1 40518U 95015DE  21261.53682791  .00001723  00000-0  43890-3 0  9991
2 40518  98.6662 359.1026 0102936 351.8063   8.1444 14.48860390345297
Source of the keplerian elements: AFSPC